星链-35991(STARLINK-35991)

导读

STARLINK-35991是美国SpaceX星链星座的卫星,于2025年12月2日发射。星链项目旨在构建全球卫星互联网通信网络,该卫星继承星链批量部署的特点,服务全球范围高速互联网接入,为偏远地区、移动场景等提供网络覆盖,进一步扩充了星链星座的在轨规模。

Basic Information
目录编号:
66861
目录名称:
STARLINK-35991
国际标识:
2025-281P
轨道中心:
EARTH
卫星名称:
星链-35991
卫星全名:
星链-35991(STARLINK-35991)
卫星状态:
在轨 (已飞行276 天)
发射日期:
2025-12-02 UTC
国别 :
美国 (US)
星等 :
--
Orbit Information
数据来源 国际轨道数据
星历时间: 2026-09-03T20:09:06+0800
18小时前
查看轨道信息
半长轴: 6861.173km
偏心率: 0.0001347
轨道倾角: 42.999°
近地点辐角 267.782°
升交点赤经 58.965°
平近点角 92.288°
近地点: 482.111km
远地点: 483.961km
周期: 94.266分钟
每日圈数: 15.275844
Detailed Information
固有亮度:
5
最大亮度:
2.5
卫星平台:
Starlink V1.0
覆盖范围:
全球
运营商:
太空探索技术公司
运营商所在国:
美国
制造商(研发单位):
太空探索技术公司
制造商所在国:
美国
使用方式:
暂无
Satellite Introduction
Starlink 计划是 SpaceX 推出的全球卫星互联网项目,通过发射低轨道卫星,为全球尤其是偏远地区提供高速、低延迟的互联网服务。自 2019 年起,Starlink 已部署数千颗卫星,旨在缩小全球数字鸿沟,推动互联网普及。该项目还为军事、航空等行业提供通信支持,带来广泛经济效益。
2D Orbit Map
3D Orbit Map
Orbit Altitude Analysis Chart
Orbit Inclination Analysis Chart
Orbit Comprehensive Analysis Chart
View Comprehensive Chart
Conjunction Data List
Event ID Objects TCA Miss Dist (km) Collision Risk Probability Collision Risk Index (CRI) Action
CDM_260904-084505-806906-686121
2026-09-04T
08:45:58+0000
0.385 km
远距离
2.493708E-4 高风险 0.83
CDM_260903-205905-806906-686121
2026-09-03T
20:59:50+0000
0.644 km
远距离
7.174118E-5 中风险 0.72
CDM_260905-022805-486906-686121
2026-09-05T
02:28:33+0000
1.070 km
极远距离
1.59883E-5 中风险 0.59
CDM_260905-144605-562306-686121
2026-09-05T
14:46:23+0000
0.808 km
远距离
1.01046E-5 中风险 0.55
CDM_260903-192505-806906-686121
2026-09-03T
19:25:40+0000
1.729 km
极远距离
2.841242E-6 低风险 0.44
CDM_260904-071105-806906-686121
2026-09-04T
07:11:49+0000
1.865 km
极远距离
2.306884E-6 低风险 0.42
CDM_260905-135905-562306-686121
2026-09-05T
13:59:19+0000
1.296 km
极远距离
2.083012E-6 低风险 0.41
CDM_260905-040205-486906-686121
2026-09-05T
04:02:42+0000
2.059 km
极远距离
2.050033E-6 低风险 0.41
CDM_260904-225806-193506-686121
2026-09-04T
22:58:06+0000
1.772 km
极远距离
2.000393E-6 低风险 0.41
CDM_260903-223305-806906-686121
2026-09-03T
22:33:59+0000
2.289 km
极远距离
1.426583E-6 低风险 0.38